Time,TemperatureF,DewpointF,PressureIn,WindDirection,WindDirectionDegrees,WindSpeedMPH,WindSpeedGustMPH,Humidity,HourlyPrecipIn,Conditions,Clouds,dailyrainin,SoftwareType,DateUTC
2013-01-01 00:00:00,26.1,24.0,29.23,WSW,247,0.0,0.0,94,0.00,,,0.00,Rainwise IP-100,2013-01-01 05:00:00,
2013-01-01 00:05:00,26.1,24.0,29.23,WSW,247,0.0,1.9,94,0.00,,,0.00,Rainwise IP-100,2013-01-01 05:05:00,
2013-01-01 00:10:00,26.2,24.0,29.23,WSW,247,0.0,0.0,95,0.00,,,0.00,Rainwise IP-100,2013-01-01 05:10:00,
2013-01-01 00:15:00,26.2,24.0,29.23,WSW,247,0.0,0.0,95,0.00,,,0.00,Rainwise IP-100,2013-01-01 05:15:00,
2013-01-01 00:20:00,26.1,24.0,29.22,WSW,247,0.0,0.0,95,0.00,,,0.00,Rainwise IP-100,2013-01-01 05:20:00,
2013-01-01 00:25:00,26.2,24.0,29.22,WSW,247,0.0,1.2,95,0.00,,,0.00,Rainwise IP-100,2013-01-01 05:25:00,
2013-01-01 00:30:00,26.4,24.0,29.22,SW,225,2.1,3.0,95,0.00,,,0.00,Rainwise IP-100,2013-01-01 05:30:00,
2013-01-01 00:35:00,26.5,26.0,29.22,SW,225,1.9,2.6,96,0.00,,,0.00,Rainwise IP-100,2013-01-01 05:35:00,
2013-01-01 00:41:00,26.5,26.0,29.22,SW,225,0.0,3.3,96,0.00,,,0.00,Rainwise IP-100,2013-01-01 05:41:00,
2013-01-01 00:46:00,26.4,24.0,29.21,SW,225,0.0,1.2,96,0.00,,,0.00,Rainwise IP-100,2013-01-01 05:46:00,
2013-01-01 00:51:00,26.3,24.0,29.21,SW,225,0.0,0.0,96,0.00,,,0.00,Rainwise IP-100,2013-01-01 05:51:00,
2013-01-01 00:56:00,26.2,24.0,29.21,ENE,67,1.2,3.3,96,0.00,,,0.00,Rainwise IP-100,2013-01-01 05:56:00,
2013-01-01 01:01:00,26.2,24.0,29.21,NNE,22,0.0,2.1,96,0.00,,,0.00,Rainwise IP-100,2013-01-01 06:01:00,
2013-01-01 01:06:00,26.2,24.0,29.21,NNE,22,0.0,1.2,96,0.00,,,0.00,Rainwise IP-100,2013-01-01 06:06:00,
2013-01-01 01:11:00,26.3,24.0,29.21,NNE,22,0.0,0.0,96,0.00,,,0.00,Rainwise IP-100,2013-01-01 06:11:00,
2013-01-01 01:16:00,26.4,24.0,29.21,NNE,22,1.2,1.9,96,0.00,,,0.00,Rainwise IP-100,2013-01-01 06:16:00,
2013-01-01 01:21:00,26.4,24.0,29.21,NNE,22,1.6,2.1,96,0.00,,,0.00,Rainwise IP-100,2013-01-01 06:21:00,
2013-01-01 01:26:00,26.4,24.0,29.21,NNW,337,3.7,5.8,96,0.00,,,0.00,Rainwise IP-100,2013-01-01 06:26:00,
2013-01-01 01:31:00,26.4,24.0,29.21,NNW,337,0.0,4.4,95,0.00,,,0.00,Rainwise IP-100,2013-01-01 06:31:00,
2013-01-01 01:36:00,26.5,26.0,29.22,NNW,337,2.6,2.6,95,0.00,,,0.00,Rainwise IP-100,2013-01-01 06:36:00,
2013-01-01 01:41:00,26.5,26.0,29.22,NNW,337,1.4,3.0,95,0.00,,,0.00,Rainwise IP-100,2013-01-01 06:41:00,
2013-01-01 01:46:00,26.5,26.0,29.22,NNW,337,0.0,1.4,96,0.00,,,0.00,Rainwise IP-100,2013-01-01 06:46:00,
2013-01-01 01:51:00,26.6,26.0,29.22,WSW,247,0.0,2.6,96,0.00,,,0.00,Rainwise IP-100,2013-01-01 06:51:00,
2013-01-01 01:54:00,26.6,26.0,29.22,WSW,247,1.6,2.6,96,0.00,,,0.00,Rainwise IP-100,2013-01-01 06:54:00,
2013-01-01 01:59:00,26.7,26.0,29.23,WNW,292,0.0,1.6,96,0.00,,,0.00,Rainwise IP-100,2013-01-01 06:59:00,
2013-01-01 02:04:00,26.6,26.0,29.22,NE,45,0.0,2.8,96,0.00,,,0.00,Rainwise IP-100,2013-01-01 07:04:00,
2013-01-01 02:09:00,26.4,24.0,29.22,NNE,22,0.0,3.5,96,0.00,,,0.00,Rainwise IP-100,2013-01-01 07:09:00,
2013-01-01 02:14:00,26.7,26.0,29.22,NNE,22,2.6,6.5,95,0.00,,,0.00,Rainwise IP-100,2013-01-01 07:14:00,
2013-01-01 02:19:00,27.5,26.0,29.22,SSW,202,2.1,7.9,95,0.00,,,0.00,Rainwise IP-100,2013-01-01 07:19:00,
2013-01-01 02:24:00,28.8,28.0,29.22,WSW,247,2.1,9.1,93,0.00,,,0.00,Rainwise IP-100,2013-01-01 07:24:00,
2013-01-01 02:29:00,30.4,28.0,29.22,West,270,0.0,6.1,90,0.00,,,0.00,Rainwise IP-100,2013-01-01 07:29:00,
2013-01-01 02:34:00,31.3,28.0,29.22,SSW,202,3.7,4.7,88,0.00,,,0.00,Rainwise IP-100,2013-01-01 07:34:00,
2013-01-01 02:39:00,31.8,28.0,29.22,SE,135,3.0,10.3,86,0.00,,,0.00,Rainwise IP-100,2013-01-01 07:39:00,
2013-01-01 02:45:00,32.0,28.0,29.23,WSW,247,0.0,6.3,85,0.00,,,0.00,Rainwise IP-100,2013-01-01 07:45:00,
2013-01-01 02:50:00,32.1,28.0,29.22,West,270,4.0,15.9,84,0.00,,,0.00,Rainwise IP-100,2013-01-01 07:50:00,
2013-01-01 02:55:00,32.7,29.0,29.22,South,180,0.0,6.1,83,0.00,,,0.00,Rainwise IP-100,2013-01-01 07:55:00,
2013-01-01 03:00:00,33.0,28.0,29.22,WSW,247,4.7,7.9,81,0.00,,,0.00,Rainwise IP-100,2013-01-01 08:00:00,
2013-01-01 03:05:00,33.1,28.0,29.22,SSE,157,0.0,9.3,80,0.00,,,0.00,Rainwise IP-100,2013-01-01 08:05:00,
2013-01-01 03:10:00,33.3,28.0,29.22,SSW,202,5.6,6.5,80,0.00,,,0.00,Rainwise IP-100,2013-01-01 08:10:00,
2013-01-01 03:15:00,33.3,28.0,29.21,West,270,2.8,7.5,79,0.00,,,0.00,Rainwise IP-100,2013-01-01 08:15:00,
2013-01-01 03:20:00,33.4,28.0,29.22,SW,225,1.6,6.5,79,0.00,,,0.00,Rainwise IP-100,2013-01-01 08:20:00,
2013-01-01 03:25:00,33.4,28.0,29.22,East,90,3.5,7.2,79,0.00,,,0.00,Rainwise IP-100,2013-01-01 08:25:00,
2013-01-01 03:30:00,33.3,28.0,29.22,SSW,202,5.4,10.5,79,0.00,,,0.00,Rainwise IP-100,2013-01-01 08:30:00,
2013-01-01 03:35:00,33.3,28.0,29.22,SSW,202,4.9,6.8,78,0.00,,,0.00,Rainwise IP-100,2013-01-01 08:35:00,
2013-01-01 03:40:00,33.2,28.0,29.22,South,180,0.0,5.8,78,0.00,,,0.00,Rainwise IP-100,2013-01-01 08:40:00,
2013-01-01 03:45:00,33.0,28.0,29.22,SSE,157,0.0,9.6,78,0.00,,,0.00,Rainwise IP-100,2013-01-01 08:45:00,
2013-01-01 03:50:00,33.0,28.0,29.22,SSW,202,1.4,6.3,77,0.00,,,0.00,Rainwise IP-100,2013-01-01 08:50:00,
2013-01-01 03:55:00,33.0,26.0,29.22,SSW,202,0.0,8.9,76,0.00,,,0.00,Rainwise IP-100,2013-01-01 08:55:00,
2013-01-01 04:00:00,33.1,26.0,29.22,SSW,202,0.0,11.9,76,0.00,,,0.00,Rainwise IP-100,2013-01-01 09:00:00,
2013-01-01 04:02:00,33.0,26.0,29.21,WSW,247,2.6,11.9,75,0.00,,,0.00,Rainwise IP-100,2013-01-01 09:02:00,
2013-01-01 04:07:00,32.9,26.0,29.21,ESE,112,4.0,12.8,75,0.00,,,0.00,Rainwise IP-100,2013-01-01 09:07:00,
2013-01-01 04:12:00,32.9,26.0,29.22,SSW,202,1.2,8.9,74,0.00,,,0.00,Rainwise IP-100,2013-01-01 09:12:00,
2013-01-01 04:17:00,32.9,26.0,29.21,WNW,292,1.9,7.0,72,0.00,,,0.00,Rainwise IP-100,2013-01-01 09:17:00,
2013-01-01 04:22:00,32.9,24.0,29.21,SE,135,2.3,6.8,71,0.00,,,0.00,Rainwise IP-100,2013-01-01 09:22:00,
2013-01-01 04:28:00,32.9,24.0,29.22,SSE,157,6.3,12.1,70,0.00,,,0.00,Rainwise IP-100,2013-01-01 09:28:00,
2013-01-01 04:33:00,32.8,24.0,29.22,WNW,292,1.9,7.7,70,0.00,,,0.00,Rainwise IP-100,2013-01-01 09:33:00,
2013-01-01 04:38:00,32.7,24.0,29.22,South,180,2.1,6.1,69,0.00,,,0.00,Rainwise IP-100,2013-01-01 09:38:00,
2013-01-01 04:43:00,32.6,24.0,29.23,SSW,202,3.5,5.6,69,0.00,,,0.00,Rainwise IP-100,2013-01-01 09:43:00,
2013-01-01 04:48:00,32.5,24.0,29.23,ENE,67,7.0,7.5,69,0.00,,,0.00,Rainwise IP-100,2013-01-01 09:48:00,
2013-01-01 04:53:00,32.3,23.0,29.23,SSW,202,3.7,10.3,69,0.00,,,0.00,Rainwise IP-100,2013-01-01 09:53:00,
2013-01-01 04:58:00,32.2,23.0,29.23,WSW,247,9.6,9.8,69,0.00,,,0.00,Rainwise IP-100,2013-01-01 09:58:00,
2013-01-01 05:03:00,32.1,23.0,29.23,SSW,202,3.3,9.6,69,0.00,,,0.00,Rainwise IP-100,2013-01-01 10:03:00,
2013-01-01 05:08:00,31.9,24.0,29.23,WSW,247,6.8,9.1,70,0.00,,,0.00,Rainwise IP-100,2013-01-01 10:08:00,
2013-01-01 05:13:00,31.7,24.0,29.23,SSW,202,5.6,11.2,71,0.00,,,0.00,Rainwise IP-100,2013-01-01 10:13:00,
2013-01-01 05:18:00,31.6,24.0,29.23,West,270,4.4,12.6,71,0.00,,,0.00,Rainwise IP-100,2013-01-01 10:18:00,
2013-01-01 05:23:00,31.5,24.0,29.24,SSE,157,4.9,14.0,71,0.00,,,0.00,Rainwise IP-100,2013-01-01 10:23:00,
2013-01-01 05:28:00,31.4,23.0,29.24,SE,135,4.0,9.6,71,0.00,,,0.00,Rainwise IP-100,2013-01-01 10:28:00,
2013-01-01 05:33:00,31.3,23.0,29.25,SW,225,6.5,8.9,70,0.00,,,0.00,Rainwise IP-100,2013-01-01 10:33:00,
2013-01-01 05:38:00,31.2,23.0,29.25,WSW,247,1.2,8.4,70,0.00,,,0.00,Rainwise IP-100,2013-01-01 10:38:00,
2013-01-01 05:44:00,30.9,23.0,29.26,WSW,247,2.6,12.4,69,0.00,,,0.00,Rainwise IP-100,2013-01-01 10:44:00,
2013-01-01 05:49:00,30.9,23.0,29.25,WSW,247,5.8,7.7,69,0.00,,,0.00,Rainwise IP-100,2013-01-01 10:49:00,
2013-01-01 05:54:00,30.9,23.0,29.26,NW,315,6.1,9.3,68,0.00,,,0.00,Rainwise IP-100,2013-01-01 10:54:00,
2013-01-01 05:59:00,30.9,21.0,29.25,ENE,67,1.4,6.1,67,0.00,,,0.00,Rainwise IP-100,2013-01-01 10:59:00,
2013-01-01 06:04:00,30.9,21.0,29.26,NNW,337,7.0,8.9,67,0.00,,,0.00,Rainwise IP-100,2013-01-01 11:04:00,
2013-01-01 06:09:00,30.9,21.0,29.26,ENE,67,1.2,8.2,66,0.00,,,0.00,Rainwise IP-100,2013-01-01 11:09:00,
2013-01-01 06:14:00,30.7,21.0,29.27,NNE,22,0.0,5.6,66,0.00,,,0.00,Rainwise IP-100,2013-01-01 11:14:00,
2013-01-01 06:19:00,30.5,21.0,29.27,NNW,337,4.2,10.3,66,0.00,,,0.00,Rainwise IP-100,2013-01-01 11:19:00,
2013-01-01 06:24:00,30.2,21.0,29.27,NNE,22,3.3,10.7,67,0.00,,,0.00,Rainwise IP-100,2013-01-01 11:24:00,
2013-01-01 06:29:00,29.7,23.0,29.28,NNW,337,5.1,11.2,69,0.00,,,0.00,Rainwise IP-100,2013-01-01 11:29:00,
2013-01-01 06:34:00,29.2,23.0,29.28,NE,45,1.6,11.9,73,0.00,,,0.00,Rainwise IP-100,2013-01-01 11:34:00,
2013-01-01 06:39:00,28.9,23.0,29.28,NW,315,0.0,12.8,76,0.00,,,0.00,Rainwise IP-100,2013-01-01 11:39:00,
2013-01-01 06:44:00,28.7,23.0,29.29,NNW,337,6.3,14.0,76,0.00,,,0.00,Rainwise IP-100,2013-01-01 11:44:00,
2013-01-01 06:49:00,28.6,23.0,29.29,NE,45,6.5,6.5,77,0.00,,,0.00,Rainwise IP-100,2013-01-01 11:49:00,
2013-01-01 06:54:00,28.5,23.0,29.30,NNW,337,6.5,12.4,78,0.00,,,0.00,Rainwise IP-100,2013-01-01 11:54:00,
2013-01-01 07:00:00,28.4,23.0,29.30,NNE,22,8.2,11.0,78,0.00,,,0.00,Rainwise IP-100,2013-01-01 12:00:00,
2013-01-01 07:05:00,28.4,23.0,29.30,ENE,67,1.9,11.0,77,0.00,,,0.00,Rainwise IP-100,2013-01-01 12:05:00,
2013-01-01 07:10:00,28.3,23.0,29.30,NNE,22,3.7,7.7,77,0.00,,,0.00,Rainwise IP-100,2013-01-01 12:10:00,
2013-01-01 07:15:00,28.3,21.0,29.31,NE,45,0.0,4.2,76,0.00,,,0.00,Rainwise IP-100,2013-01-01 12:15:00,
2013-01-01 07:20:00,28.4,21.0,29.31,NW,315,1.4,9.1,75,0.00,,,0.00,Rainwise IP-100,2013-01-01 12:20:00,
2013-01-01 07:25:00,28.3,21.0,29.31,NNW,337,3.3,3.7,75,0.00,,,0.00,Rainwise IP-100,2013-01-01 12:25:00,
2013-01-01 07:30:00,28.1,21.0,29.31,NNE,22,4.0,14.9,76,0.00,,,0.00,Rainwise IP-100,2013-01-01 12:30:00,
2013-01-01 07:35:00,27.6,21.0,29.32,North,360,8.6,11.7,76,0.00,,,0.00,Rainwise IP-100,2013-01-01 12:35:00,
2013-01-01 07:40:00,27.1,21.0,29.32,NNW,337,7.2,13.8,76,0.00,,,0.00,Rainwise IP-100,2013-01-01 12:40:00,
2013-01-01 07:45:00,26.8,21.0,29.32,NNE,22,9.1,12.8,75,0.00,,,0.00,Rainwise IP-100,2013-01-01 12:45:00,
2013-01-01 07:50:00,26.5,21.0,29.32,NW,315,6.5,13.3,75,0.00,,,0.00,Rainwise IP-100,2013-01-01 12:50:00,
2013-01-01 07:55:00,26.3,18.0,29.32,North,360,5.1,17.0,74,0.00,,,0.00,Rainwise IP-100,2013-01-01 12:55:00,
2013-01-01 08:00:00,26.0,18.0,29.33,North,360,8.4,13.3,74,0.00,,,0.00,Rainwise IP-100,2013-01-01 13:00:00,
2013-01-01 08:05:00,25.7,18.0,29.33,NNE,22,6.5,19.6,74,0.00,,,0.00,Rainwise IP-100,2013-01-01 13:05:00,
2013-01-01 08:10:00,25.4,18.0,29.34,NNW,337,7.5,13.8,74,0.00,,,0.00,Rainwise IP-100,2013-01-01 13:10:00,
2013-01-01 08:16:00,25.2,18.0,29.33,North,360,16.6,16.6,74,0.00,,,0.00,Rainwise IP-100,2013-01-01 13:16:00,
2013-01-01 08:21:00,25.1,18.0,29.34,NNE,22,11.7,17.0,73,0.00,,,0.00,Rainwise IP-100,2013-01-01 13:21:00,
2013-01-01 08:26:00,24.9,18.0,29.34,NNW,337,7.5,13.5,73,0.00,,,0.00,Rainwise IP-100,2013-01-01 13:26:00,
2013-01-01 08:31:00,24.7,18.0,29.34,NNE,22,9.6,11.0,72,0.00,,,0.00,Rainwise IP-100,2013-01-01 13:31:00,
2013-01-01 08:36:00,24.7,18.0,29.34,North,360,7.2,14.5,72,0.00,,,0.00,Rainwise IP-100,2013-01-01 13:36:00,
2013-01-01 08:41:00,24.6,18.0,29.34,North,360,8.9,16.1,71,0.00,,,0.00,Rainwise IP-100,2013-01-01 13:41:00,
2013-01-01 08:46:00,24.5,18.0,29.34,NNW,337,6.8,13.1,71,0.00,,,0.00,Rainwise IP-100,2013-01-01 13:46:00,
2013-01-01 08:51:00,24.4,16.0,29.35,North,360,12.1,15.4,70,0.00,,,0.00,Rainwise IP-100,2013-01-01 13:51:00,
2013-01-01 08:56:00,24.2,16.0,29.35,NNE,22,4.4,15.9,69,0.00,,,0.00,Rainwise IP-100,2013-01-01 13:56:00,
2013-01-01 09:01:00,24.0,16.0,29.34,NNE,22,9.6,13.1,68,0.00,,,0.00,Rainwise IP-100,2013-01-01 14:01:00,
2013-01-01 09:06:00,23.9,16.0,29.35,NNE,22,6.3,12.4,68,0.00,,,0.00,Rainwise IP-100,2013-01-01 14:06:00,
2013-01-01 09:11:00,23.8,16.0,29.35,NE,45,8.4,16.6,67,0.00,,,0.00,Rainwise IP-100,2013-01-01 14:11:00,
2013-01-01 09:16:00,23.7,16.0,29.36,NNE,22,7.9,16.1,67,0.00,,,0.00,Rainwise IP-100,2013-01-01 14:16:00,
2013-01-01 09:21:00,23.7,16.0,29.36,NNE,22,9.8,12.8,66,0.00,,,0.00,Rainwise IP-100,2013-01-01 14:21:00,
2013-01-01 09:26:00,23.8,16.0,29.36,NNW,337,9.3,13.1,66,0.00,,,0.00,Rainwise IP-100,2013-01-01 14:26:00,
2013-01-01 09:32:00,24.1,14.0,29.36,NNE,22,10.0,17.3,65,0.00,,,0.00,Rainwise IP-100,2013-01-01 14:32:00,
2013-01-01 09:37:00,24.5,16.0,29.36,NNE,22,8.4,15.6,65,0.00,,,0.00,Rainwise IP-100,2013-01-01 14:37:00,
2013-01-01 09:42:00,24.6,16.0,29.36,NNW,337,7.5,11.9,65,0.00,,,0.00,Rainwise IP-100,2013-01-01 14:42:00,
2013-01-01 09:47:00,24.4,16.0,29.37,West,270,10.7,12.6,66,0.00,,,0.00,Rainwise IP-100,2013-01-01 14:47:00,
2013-01-01 09:52:00,24.1,14.0,29.36,NNE,22,11.9,14.0,65,0.00,,,0.00,Rainwise IP-100,2013-01-01 14:52:00,
2013-01-01 09:57:00,24.0,14.0,29.37,NNE,22,6.5,13.5,65,0.00,,,0.00,Rainwise IP-100,2013-01-01 14:57:00,
2013-01-01 10:02:00,23.8,14.0,29.38,WNW,292,2.3,17.3,65,0.00,,,0.00,Rainwise IP-100,2013-01-01 15:02:00,
2013-01-01 10:07:00,23.7,14.0,29.38,North,360,4.4,7.5,65,0.00,,,0.00,Rainwise IP-100,2013-01-01 15:07:00,
2013-01-01 10:12:00,23.6,14.0,29.38,NNE,22,2.8,13.1,65,0.00,,,0.00,Rainwise IP-100,2013-01-01 15:12:00,
2013-01-01 10:17:00,23.4,14.0,29.38,North,360,6.1,6.8,65,0.00,,,0.00,Rainwise IP-100,2013-01-01 15:17:00,
2013-01-01 10:22:00,23.4,14.0,29.38,North,360,6.5,9.8,65,0.00,,,0.00,Rainwise IP-100,2013-01-01 15:22:00,
2013-01-01 10:27:00,23.3,14.0,29.38,NNE,22,2.8,9.8,65,0.00,,,0.00,Rainwise IP-100,2013-01-01 15:27:00,
2013-01-01 10:32:00,23.2,14.0,29.38,NNE,22,4.4,8.6,65,0.00,,,0.00,Rainwise IP-100,2013-01-01 15:32:00,
2013-01-01 10:37:00,23.1,14.0,29.37,NW,315,4.9,11.0,65,0.00,,,0.00,Rainwise IP-100,2013-01-01 15:37:00,
2013-01-01 10:42:00,23.0,14.0,29.38,North,360,4.9,12.1,65,0.00,,,0.00,Rainwise IP-100,2013-01-01 15:42:00,
2013-01-01 10:48:00,23.0,14.0,29.37,NNW,337,0.0,7.0,65,0.00,,,0.00,Rainwise IP-100,2013-01-01 15:48:00,
2013-01-01 10:53:00,23.1,14.0,29.37,NNE,22,6.1,8.4,65,0.00,,,0.00,Rainwise IP-100,2013-01-01 15:53:00,
2013-01-01 10:58:00,23.0,14.0,29.36,NNW,337,4.7,11.4,65,0.00,,,0.00,Rainwise IP-100,2013-01-01 15:58:00,
2013-01-01 11:03:00,22.9,14.0,29.35,NNE,22,6.3,9.1,65,0.00,,,0.00,Rainwise IP-100,2013-01-01 16:03:00,
2013-01-01 11:08:00,23.1,14.0,29.36,NNE,22,3.0,9.8,65,0.00,,,0.00,Rainwise IP-100,2013-01-01 16:08:00,
2013-01-01 11:13:00,23.2,14.0,29.36,North,360,5.4,8.4,65,0.00,,,0.00,Rainwise IP-100,2013-01-01 16:13:00,
2013-01-01 11:18:00,23.2,14.0,29.36,SSW,202,2.8,14.9,65,0.00,,,0.00,Rainwise IP-100,2013-01-01 16:18:00,
2013-01-01 11:23:00,23.2,14.0,29.37,North,360,7.9,10.7,65,0.00,,,0.00,Rainwise IP-100,2013-01-01 16:23:00,
2013-01-01 11:28:00,23.1,14.0,29.36,North,360,8.9,12.6,64,0.00,,,0.00,Rainwise IP-100,2013-01-01 16:28:00,
2013-01-01 11:33:00,23.0,14.0,29.36,NNW,337,8.4,11.2,65,0.00,,,0.00,Rainwise IP-100,2013-01-01 16:33:00,
2013-01-01 11:38:00,23.0,14.0,29.36,NNW,337,3.0,13.5,64,0.00,,,0.00,Rainwise IP-100,2013-01-01 16:38:00,
2013-01-01 11:43:00,23.1,14.0,29.36,NNW,337,9.8,11.2,64,0.00,,,0.00,Rainwise IP-100,2013-01-01 16:43:00,
2013-01-01 11:48:00,23.2,14.0,29.36,NNE,22,5.1,12.6,64,0.00,,,0.00,Rainwise IP-100,2013-01-01 16:48:00,
2013-01-01 11:53:00,23.2,14.0,29.35,NNE,22,1.4,10.3,63,0.00,,,0.00,Rainwise IP-100,2013-01-01 16:53:00,
2013-01-01 11:58:00,23.3,14.0,29.35,NNE,22,3.0,6.8,63,0.00,,,0.00,Rainwise IP-100,2013-01-01 16:58:00,
2013-01-01 12:04:00,23.4,14.0,29.35,NNE,22,8.9,8.9,63,0.00,,,0.00,Rainwise IP-100,2013-01-01 17:04:00,
2013-01-01 12:09:00,23.4,14.0,29.36,ENE,67,4.9,8.9,63,0.00,,,0.00,Rainwise IP-100,2013-01-01 17:09:00,
2013-01-01 12:14:00,23.3,11.0,29.35,NNE,22,4.0,11.4,62,0.00,,,0.00,Rainwise IP-100,2013-01-01 17:14:00,
2013-01-01 12:19:00,23.2,11.0,29.35,North,360,7.0,11.7,62,0.00,,,0.00,Rainwise IP-100,2013-01-01 17:19:00,
2013-01-01 12:24:00,23.2,11.0,29.35,NNW,337,4.7,13.8,62,0.00,,,0.00,Rainwise IP-100,2013-01-01 17:24:00,
2013-01-01 12:29:00,23.3,11.0,29.35,NNE,22,5.1,12.1,61,0.00,,,0.00,Rainwise IP-100,2013-01-01 17:29:00,
2013-01-01 12:34:00,23.4,11.0,29.35,NNE,22,2.3,14.2,61,0.00,,,0.00,Rainwise IP-100,2013-01-01 17:34:00,
2013-01-01 12:39:00,23.4,11.0,29.36,North,360,3.3,7.2,61,0.00,,,0.00,Rainwise IP-100,2013-01-01 17:39:00,
2013-01-01 12:44:00,23.5,14.0,29.35,North,360,9.3,9.6,61,0.00,,,0.00,Rainwise IP-100,2013-01-01 17:44:00,
2013-01-01 12:49:00,23.6,14.0,29.35,NNE,22,9.3,16.3,61,0.00,,,0.00,Rainwise IP-100,2013-01-01 17:49:00,
2013-01-01 12:54:00,23.3,11.0,29.34,NNE,22,8.6,13.8,61,0.00,,,0.00,Rainwise IP-100,2013-01-01 17:54:00,
2013-01-01 12:59:00,23.0,11.0,29.35,NNW,337,6.8,13.5,61,0.00,,,0.00,Rainwise IP-100,2013-01-01 17:59:00,
2013-01-01 13:04:00,23.0,11.0,29.35,NE,45,2.1,7.5,60,0.00,,,0.00,Rainwise IP-100,2013-01-01 18:04:00,
2013-01-01 13:09:00,23.1,11.0,29.35,NNE,22,5.1,8.6,60,0.00,,,0.00,Rainwise IP-100,2013-01-01 18:09:00,
2013-01-01 13:14:00,23.1,11.0,29.35,NNE,22,6.1,7.5,61,0.00,,,0.00,Rainwise IP-100,2013-01-01 18:14:00,
2013-01-01 13:20:00,23.1,11.0,29.34,NW,315,5.8,12.1,61,0.00,,,0.00,Rainwise IP-100,2013-01-01 18:20:00,
2013-01-01 13:25:00,22.8,11.0,29.33,NNE,22,8.9,18.4,61,0.00,,,0.00,Rainwise IP-100,2013-01-01 18:25:00,
2013-01-01 13:30:00,22.8,11.0,29.33,NNE,22,4.0,12.1,61,0.00,,,0.00,Rainwise IP-100,2013-01-01 18:30:00,
2013-01-01 13:35:00,23.0,11.0,29.33,ESE,112,1.2,8.9,61,0.00,,,0.00,Rainwise IP-100,2013-01-01 18:35:00,
2013-01-01 13:40:00,23.0,11.0,29.33,NNW,337,9.6,10.0,61,0.00,,,0.00,Rainwise IP-100,2013-01-01 18:40:00,
2013-01-01 13:45:00,23.1,11.0,29.33,North,360,7.7,9.6,61,0.00,,,0.00,Rainwise IP-100,2013-01-01 18:45:00,
2013-01-01 13:50:00,22.8,11.0,29.34,NNE,22,15.9,15.9,61,0.00,,,0.00,Rainwise IP-100,2013-01-01 18:50:00,
2013-01-01 13:55:00,22.4,11.0,29.35,SSE,157,2.3,18.2,61,0.00,,,0.00,Rainwise IP-100,2013-01-01 18:55:00,
2013-01-01 14:00:00,22.3,11.0,29.35,ENE,67,4.7,10.7,60,0.00,,,0.00,Rainwise IP-100,2013-01-01 19:00:00,
2013-01-01 14:05:00,22.1,11.0,29.35,North,360,11.4,12.8,60,0.00,,,0.00,Rainwise IP-100,2013-01-01 19:05:00,
2013-01-01 14:10:00,21.9,11.0,29.35,ENE,67,3.3,11.4,60,0.00,,,0.00,Rainwise IP-100,2013-01-01 19:10:00,
2013-01-01 14:15:00,21.9,11.0,29.36,ENE,67,3.7,7.5,60,0.00,,,0.00,Rainwise IP-100,2013-01-01 19:15:00,
2013-01-01 14:20:00,22.0,11.0,29.35,NE,45,7.2,15.4,60,0.00,,,0.00,Rainwise IP-100,2013-01-01 19:20:00,
2013-01-01 14:25:00,22.1,11.0,29.35,NNW,337,5.1,10.0,60,0.00,,,0.00,Rainwise IP-100,2013-01-01 19:25:00,
2013-01-01 14:31:00,22.0,11.0,29.36,South,180,2.8,9.8,60,0.00,,,0.00,Rainwise IP-100,2013-01-01 19:31:00,
2013-01-01 14:36:00,21.6,11.0,29.35,SE,135,1.2,9.8,60,0.00,,,0.00,Rainwise IP-100,2013-01-01 19:36:00,
2013-01-01 14:41:00,21.3,11.0,29.35,South,180,0.0,7.5,60,0.00,,,0.00,Rainwise IP-100,2013-01-01 19:41:00,
2013-01-01 14:46:00,21.2,11.0,29.35,West,270,1.4,12.8,60,0.00,,,0.00,Rainwise IP-100,2013-01-01 19:46:00,
2013-01-01 14:51:00,21.3,11.0,29.35,NE,45,6.5,8.4,60,0.00,,,0.00,Rainwise IP-100,2013-01-01 19:51:00,
2013-01-01 14:56:00,21.1,11.0,29.35,NW,315,2.8,7.5,60,0.00,,,0.00,Rainwise IP-100,2013-01-01 19:56:00,
2013-01-01 15:01:00,21.0,11.0,29.35,ENE,67,0.0,5.6,60,0.00,,,0.00,Rainwise IP-100,2013-01-01 20:01:00,
2013-01-01 15:06:00,20.8,11.0,29.35,WNW,292,4.2,9.8,60,0.00,,,0.00,Rainwise IP-100,2013-01-01 20:06:00,
2013-01-01 15:11:00,20.7,11.0,29.35,SSW,202,0.0,7.7,60,0.00,,,0.00,Rainwise IP-100,2013-01-01 20:11:00,
2013-01-01 15:16:00,20.6,11.0,29.35,ENE,67,0.0,9.6,60,0.00,,,0.00,Rainwise IP-100,2013-01-01 20:16:00,
2013-01-01 15:21:00,20.5,11.0,29.35,WSW,247,6.8,6.8,60,0.00,,,0.00,Rainwise IP-100,2013-01-01 20:21:00,
2013-01-01 15:26:00,20.3,11.0,29.36,NE,45,1.2,10.7,60,0.00,,,0.00,Rainwise IP-100,2013-01-01 20:26:00,
2013-01-01 15:31:00,20.2,11.0,29.35,SSW,202,5.8,5.8,60,0.00,,,0.00,Rainwise IP-100,2013-01-01 20:31:00,
2013-01-01 15:36:00,20.1,11.0,29.35,SE,135,1.9,6.3,60,0.00,,,0.00,Rainwise IP-100,2013-01-01 20:36:00,
2013-01-01 15:41:00,19.9,11.0,29.35,NNE,22,2.1,9.6,60,0.00,,,0.00,Rainwise IP-100,2013-01-01 20:41:00,
2013-01-01 15:47:00,19.7,11.0,29.35,ESE,112,2.1,8.9,60,0.00,,,0.00,Rainwise IP-100,2013-01-01 20:47:00,
2013-01-01 15:52:00,19.5,11.0,29.36,NNE,22,0.0,6.3,60,0.00,,,0.00,Rainwise IP-100,2013-01-01 20:52:00,
2013-01-01 15:57:00,19.4,11.0,29.36,NE,45,1.4,3.5,60,0.00,,,0.00,Rainwise IP-100,2013-01-01 20:57:00,
2013-01-01 16:02:00,19.3,11.0,29.36,SSE,157,2.6,4.0,60,0.00,,,0.00,Rainwise IP-100,2013-01-01 21:02:00,
2013-01-01 16:07:00,19.1,11.0,29.37,WSW,247,0.0,4.7,61,0.00,,,0.00,Rainwise IP-100,2013-01-01 21:07:00,
2013-01-01 16:12:00,18.9,11.0,29.37,WSW,247,0.0,4.0,61,0.00,,,0.00,Rainwise IP-100,2013-01-01 21:12:00,
2013-01-01 16:17:00,18.8,11.0,29.37,WNW,292,1.9,2.1,62,0.00,,,0.00,Rainwise IP-100,2013-01-01 21:17:00,
2013-01-01 16:22:00,18.5,11.0,29.37,NNW,337,0.0,3.7,63,0.00,,,0.00,Rainwise IP-100,2013-01-01 21:22:00,
2013-01-01 16:27:00,18.4,8.0,29.37,NNW,337,0.0,0.0,63,0.00,,,0.00,Rainwise IP-100,2013-01-01 21:27:00,
2013-01-01 16:32:00,18.3,8.0,29.38,NNW,337,0.0,0.0,63,0.00,,,0.00,Rainwise IP-100,2013-01-01 21:32:00,
2013-01-01 16:37:00,18.0,8.0,29.37,WSW,247,0.0,2.6,64,0.00,,,0.00,Rainwise IP-100,2013-01-01 21:37:00,
2013-01-01 16:42:00,17.8,8.0,29.37,NW,315,0.0,5.4,63,0.00,,,0.00,Rainwise IP-100,2013-01-01 21:42:00,
2013-01-01 16:47:00,17.7,8.0,29.37,NNW,337,0.0,2.6,63,0.00,,,0.00,Rainwise IP-100,2013-01-01 21:47:00,
2013-01-01 16:52:00,17.3,8.0,29.38,NNW,337,0.0,2.8,64,0.00,,,0.00,Rainwise IP-100,2013-01-01 21:52:00,
2013-01-01 16:57:00,16.8,11.0,29.39,NNW,337,0.0,0.0,65,0.00,,,0.00,Rainwise IP-100,2013-01-01 21:57:00,
2013-01-01 17:03:00,16.6,11.0,29.39,NNW,337,0.0,1.4,66,0.00,,,0.00,Rainwise IP-100,2013-01-01 22:03:00,
2013-01-01 17:08:00,16.3,8.0,29.39,NNW,337,0.0,0.0,68,0.00,,,0.00,Rainwise IP-100,2013-01-01 22:08:00,
2013-01-01 17:13:00,15.8,8.0,29.39,NNW,337,0.0,0.0,69,0.00,,,0.00,Rainwise IP-100,2013-01-01 22:13:00,
2013-01-01 17:18:00,15.4,8.0,29.40,NNW,337,0.0,0.0,69,0.00,,,0.00,Rainwise IP-100,2013-01-01 22:18:00,
2013-01-01 17:23:00,15.3,8.0,29.40,NNW,337,0.0,1.2,69,0.00,,,0.00,Rainwise IP-100,2013-01-01 22:23:00,
2013-01-01 17:28:00,15.3,8.0,29.40,NNW,337,0.0,0.0,70,0.00,,,0.00,Rainwise IP-100,2013-01-01 22:28:00,
2013-01-01 17:33:00,14.8,8.0,29.40,NNW,337,0.0,1.4,72,0.00,,,0.00,Rainwise IP-100,2013-01-01 22:33:00,
2013-01-01 17:38:00,14.4,8.0,29.40,NNW,337,1.2,2.1,72,0.00,,,0.00,Rainwise IP-100,2013-01-01 22:38:00,
2013-01-01 17:43:00,14.2,8.0,29.40,North,360,4.0,4.0,71,0.00,,,0.00,Rainwise IP-100,2013-01-01 22:43:00,
2013-01-01 17:48:00,14.1,8.0,29.40,NNW,337,1.6,4.0,70,0.00,,,0.00,Rainwise IP-100,2013-01-01 22:48:00,
2013-01-01 17:53:00,13.9,8.0,29.39,North,360,3.0,3.5,70,0.00,,,0.00,Rainwise IP-100,2013-01-01 22:53:00,
2013-01-01 17:58:00,13.8,8.0,29.40,NNE,22,0.0,3.5,70,0.00,,,0.00,Rainwise IP-100,2013-01-01 22:58:00,
2013-01-01 18:03:00,13.8,8.0,29.40,NNE,22,0.0,1.9,70,0.00,,,0.00,Rainwise IP-100,2013-01-01 23:03:00,
2013-01-01 18:08:00,13.6,8.0,29.40,NNE,22,0.0,1.2,71,0.00,,,0.00,Rainwise IP-100,2013-01-01 23:08:00,
2013-01-01 18:13:00,13.4,8.0,29.41,NNE,22,0.0,0.0,72,0.00,,,0.00,Rainwise IP-100,2013-01-01 23:13:00,
2013-01-01 18:19:00,13.3,8.0,29.41,NNE,22,0.0,1.6,73,0.00,,,0.00,Rainwise IP-100,2013-01-01 23:19:00,
2013-01-01 18:24:00,13.1,8.0,29.41,NNE,22,0.0,0.0,73,0.00,,,0.00,Rainwise IP-100,2013-01-01 23:24:00,
2013-01-01 18:29:00,13.0,8.0,29.41,NNE,22,0.0,0.0,73,0.00,,,0.00,Rainwise IP-100,2013-01-01 23:29:00,
2013-01-01 18:34:00,12.8,8.0,29.41,NNE,22,0.0,0.0,73,0.00,,,0.00,Rainwise IP-100,2013-01-01 23:34:00,
2013-01-01 18:39:00,12.6,8.0,29.42,NNE,22,0.0,0.0,74,0.00,,,0.00,Rainwise IP-100,2013-01-01 23:39:00,
2013-01-01 18:44:00,12.6,8.0,29.43,WNW,292,0.0,2.1,73,0.00,,,0.00,Rainwise IP-100,2013-01-01 23:44:00,
2013-01-01 18:49:00,12.3,8.0,29.43,WNW,292,0.0,0.0,74,0.00,,,0.00,Rainwise IP-100,2013-01-01 23:49:00,
2013-01-01 18:54:00,11.7,8.0,29.43,WNW,292,0.0,0.0,75,0.00,,,0.00,Rainwise IP-100,2013-01-01 23:54:00,
2013-01-01 18:59:00,11.3,4.0,29.43,WNW,292,0.0,1.9,76,0.00,,,0.00,Rainwise IP-100,2013-01-01 23:59:00,
2013-01-01 19:04:00,11.4,4.0,29.43,WSW,247,0.0,2.6,76,0.00,,,0.00,Rainwise IP-100,2013-01-02 00:04:00,
2013-01-01 19:09:00,11.5,8.0,29.43,WSW,247,0.0,1.6,76,0.00,,,0.00,Rainwise IP-100,2013-01-02 00:09:00,
2013-01-01 19:14:00,11.3,4.0,29.43,WSW,247,0.0,0.0,77,0.00,,,0.00,Rainwise IP-100,2013-01-02 00:14:00,
2013-01-01 19:19:00,10.8,4.0,29.44,WSW,247,0.0,0.0,78,0.00,,,0.00,Rainwise IP-100,2013-01-02 00:19:00,
2013-01-01 19:24:00,10.3,8.0,29.44,WSW,247,0.0,1.2,79,0.00,,,0.00,Rainwise IP-100,2013-01-02 00:24:00,
2013-01-01 19:29:00,9.7,8.0,29.44,WSW,247,0.0,0.0,80,0.00,,,0.00,Rainwise IP-100,2013-01-02 00:29:00,
2013-01-01 19:35:00,9.0,8.0,29.44,WSW,247,0.0,0.0,80,0.00,,,0.00,Rainwise IP-100,2013-01-02 00:35:00,
2013-01-01 19:40:00,8.3,4.0,29.44,WSW,247,0.0,0.0,81,0.00,,,0.00,Rainwise IP-100,2013-01-02 00:40:00,
2013-01-01 19:45:00,8.2,4.0,29.44,WSW,247,0.0,0.0,82,0.00,,,0.00,Rainwise IP-100,2013-01-02 00:45:00,
2013-01-01 19:50:00,8.1,4.0,29.44,WSW,247,0.0,0.0,82,0.00,,,0.00,Rainwise IP-100,2013-01-02 00:50:00,
2013-01-01 19:55:00,8.0,4.0,29.44,WSW,247,0.0,0.0,82,0.00,,,0.00,Rainwise IP-100,2013-01-02 00:55:00,
2013-01-01 20:00:00,7.8,4.0,29.45,WSW,247,0.0,0.0,82,0.00,,,0.00,Rainwise IP-100,2013-01-02 01:00:00,
2013-01-01 20:05:00,7.5,4.0,29.45,WSW,247,0.0,0.0,83,0.00,,,0.00,Rainwise IP-100,2013-01-02 01:05:00,
2013-01-01 20:10:00,7.3,4.0,29.45,WSW,247,0.0,0.0,84,0.00,,,0.00,Rainwise IP-100,2013-01-02 01:10:00,
2013-01-01 20:15:00,7.3,4.0,29.45,WSW,247,0.0,0.0,85,0.00,,,0.00,Rainwise IP-100,2013-01-02 01:15:00,
2013-01-01 20:20:00,7.3,4.0,29.45,WSW,247,0.0,0.0,85,0.00,,,0.00,Rainwise IP-100,2013-01-02 01:20:00,
2013-01-01 20:25:00,7.2,4.0,29.45,WSW,247,0.0,0.0,86,0.00,,,0.00,Rainwise IP-100,2013-01-02 01:25:00,
2013-01-01 20:30:00,7.4,4.0,29.45,WSW,247,0.0,0.0,86,0.00,,,0.00,Rainwise IP-100,2013-01-02 01:30:00,
2013-01-01 20:35:00,7.7,4.0,29.44,WSW,247,0.0,0.0,86,0.00,,,0.00,Rainwise IP-100,2013-01-02 01:35:00,
2013-01-01 20:40:00,7.7,4.0,29.45,NW,315,0.0,1.6,84,0.00,,,0.00,Rainwise IP-100,2013-01-02 01:40:00,
2013-01-01 20:45:00,7.4,4.0,29.45,NW,315,0.0,0.0,83,0.00,,,0.00,Rainwise IP-100,2013-01-02 01:45:00,
2013-01-01 20:51:00,7.3,4.0,29.45,NW,315,0.0,0.0,84,0.00,,,0.00,Rainwise IP-100,2013-01-02 01:51:00,
2013-01-01 20:56:00,7.2,4.0,29.45,NW,315,0.0,0.0,84,0.00,,,0.00,Rainwise IP-100,2013-01-02 01:56:00,
2013-01-01 21:01:00,7.0,4.0,29.45,NW,315,0.0,1.2,84,0.00,,,0.00,Rainwise IP-100,2013-01-02 02:01:00,
2013-01-01 21:06:00,6.6,4.0,29.45,NW,315,0.0,0.0,83,0.00,,,0.00,Rainwise IP-100,2013-01-02 02:06:00,
2013-01-01 21:11:00,6.2,4.0,29.45,NW,315,0.0,1.4,83,0.00,,,0.00,Rainwise IP-100,2013-01-02 02:11:00,
2013-01-01 21:16:00,6.0,4.0,29.45,NW,315,0.0,0.0,84,0.00,,,0.00,Rainwise IP-100,2013-01-02 02:16:00,
2013-01-01 21:21:00,6.1,4.0,29.45,NW,315,0.0,0.0,84,0.00,,,0.00,Rainwise IP-100,2013-01-02 02:21:00,
2013-01-01 21:26:00,5.8,4.0,29.45,NW,315,1.2,1.9,83,0.00,,,0.00,Rainwise IP-100,2013-01-02 02:26:00,
2013-01-01 21:31:00,5.2,4.0,29.45,NW,315,0.0,1.6,83,0.00,,,0.00,Rainwise IP-100,2013-01-02 02:31:00,
2013-01-01 21:36:00,5.1,4.0,29.45,NW,315,0.0,1.2,83,0.00,,,0.00,Rainwise IP-100,2013-01-02 02:36:00,
2013-01-01 21:41:00,4.9,4.0,29.45,NW,315,0.0,0.0,84,0.00,,,0.00,Rainwise IP-100,2013-01-02 02:41:00,
2013-01-01 21:46:00,4.8,4.0,29.45,NW,315,0.0,0.0,84,0.00,,,0.00,Rainwise IP-100,2013-01-02 02:46:00,
2013-01-01 21:51:00,4.7,4.0,29.45,NW,315,0.0,0.0,84,0.00,,,0.00,Rainwise IP-100,2013-01-02 02:51:00,
2013-01-01 21:56:00,4.5,4.0,29.46,NW,315,0.0,2.1,85,0.00,,,0.00,Rainwise IP-100,2013-01-02 02:56:00,
2013-01-01 22:01:00,4.2,0.0,29.46,NW,315,0.0,0.0,85,0.00,,,0.00,Rainwise IP-100,2013-01-02 03:01:00,
2013-01-01 22:07:00,4.0,0.0,29.46,NW,315,0.0,0.0,85,0.00,,,0.00,Rainwise IP-100,2013-01-02 03:07:00,
2013-01-01 22:12:00,4.1,0.0,29.46,NW,315,0.0,0.0,86,0.00,,,0.00,Rainwise IP-100,2013-01-02 03:12:00,
2013-01-01 22:17:00,4.2,0.0,29.46,NW,315,0.0,1.2,86,0.00,,,0.00,Rainwise IP-100,2013-01-02 03:17:00,
2013-01-01 22:22:00,4.1,0.0,29.46,NW,315,0.0,0.0,86,0.00,,,0.00,Rainwise IP-100,2013-01-02 03:22:00,
2013-01-01 22:27:00,3.9,0.0,29.47,NW,315,0.0,0.0,87,0.00,,,0.00,Rainwise IP-100,2013-01-02 03:27:00,
2013-01-01 22:32:00,3.9,0.0,29.46,NW,315,0.0,0.0,87,0.00,,,0.00,Rainwise IP-100,2013-01-02 03:32:00,
2013-01-01 22:37:00,4.0,0.0,29.47,NW,315,0.0,1.6,86,0.00,,,0.00,Rainwise IP-100,2013-01-02 03:37:00,
2013-01-01 22:42:00,3.9,0.0,29.47,NW,315,0.0,0.0,86,0.00,,,0.00,Rainwise IP-100,2013-01-02 03:42:00,
2013-01-01 22:47:00,3.8,0.0,29.47,NW,315,0.0,0.0,86,0.00,,,0.00,Rainwise IP-100,2013-01-02 03:47:00,
2013-01-01 22:52:00,3.7,0.0,29.47,NW,315,0.0,0.0,86,0.00,,,0.00,Rainwise IP-100,2013-01-02 03:52:00,
2013-01-01 22:57:00,3.5,0.0,29.47,NW,315,0.0,0.0,86,0.00,,,0.00,Rainwise IP-100,2013-01-02 03:57:00,
2013-01-01 23:02:00,3.5,0.0,29.47,NW,315,0.0,0.0,86,0.00,,,0.00,Rainwise IP-100,2013-01-02 04:02:00,
2013-01-01 23:07:00,3.5,0.0,29.47,NW,315,0.0,0.0,86,0.00,,,0.00,Rainwise IP-100,2013-01-02 04:07:00,
2013-01-01 23:12:00,3.3,0.0,29.47,NW,315,0.0,1.4,86,0.00,,,0.00,Rainwise IP-100,2013-01-02 04:12:00,
2013-01-01 23:17:00,3.1,0.0,29.47,NW,315,0.0,0.0,86,0.00,,,0.00,Rainwise IP-100,2013-01-02 04:17:00,
2013-01-01 23:23:00,3.0,0.0,29.46,NW,315,0.0,0.0,86,0.00,,,0.00,Rainwise IP-100,2013-01-02 04:23:00,
2013-01-01 23:28:00,2.9,0.0,29.46,NW,315,0.0,1.4,85,0.00,,,0.00,Rainwise IP-100,2013-01-02 04:28:00,
2013-01-01 23:33:00,2.3,0.0,29.46,NW,315,0.0,0.0,85,0.00,,,0.00,Rainwise IP-100,2013-01-02 04:33:00,
2013-01-01 23:38:00,2.0,0.0,29.46,NW,315,0.0,1.6,85,0.00,,,0.00,Rainwise IP-100,2013-01-02 04:38:00,
2013-01-01 23:43:00,1.8,0.0,29.46,NW,315,0.0,0.0,85,0.00,,,0.00,Rainwise IP-100,2013-01-02 04:43:00,
2013-01-01 23:48:00,1.8,0.0,29.46,NW,315,0.0,0.0,86,0.00,,,0.00,Rainwise IP-100,2013-01-02 04:48:00,
2013-01-01 23:53:00,1.9,0.0,29.46,NW,315,0.0,0.0,87,0.00,,,0.00,Rainwise IP-100,2013-01-02 04:53:00,
2013-01-01 23:58:00,2.0,0.0,29.46,NW,315,0.0,0.0,87,0.00,,,0.00,Rainwise IP-100,2013-01-02 04:58:00,